Hot Springs, VA

12:26 AM EDT on June 29, 2017 (GMT -0400)
Ingalls

Weather History for KHSP - January, 2014

Change the Weather History Date:

Thursday, January 9, 2014

  Actual Average Record
Temperature  
Mean Temperature 32 °F -  
Max Temperature 39 °F 34 °F 55 °F (2006)
Min Temperature 24 °F 20 °F 1 °F (2017)
Degree Days  
Heating Degree Days 34    
Moisture  
Dew Point 12 °F    
Average Humidity 47    
Maximum Humidity 55    
Minimum Humidity 33    
Precipitation  
Precipitation 0.00 in - - ()
Sea Level Pressure  
Sea Level Pressure 30.41 in    
Wind  
Wind Speed 11 mph (SSW)    
Max Wind Speed 15 mph    
Max Gust Speed 20 mph    
Visibility 10 miles    
Events      
Averages and records for this station are not official NWS values.
T = Trace of Precipitation, MM = Missing Value Source: NWS Daily Summary

Daily Weather History Graph

Daily Weather History Graph

Search for Another Location

Airport or City:

Trip Planner

Search our weather history database for the weather conditions in past years. The results will help you decide how hot, cold, wet, or windy it might be!

Date:

Astronomy

Jan. 09, 2014 Rise Set
Actual Time 7:35 AM EST 5:17 PM EST
Civil Twilight 7:06 AM EST 5:46 PM EST
Nautical Twilight 6:33 AM EST 6:19 PM EST
Astronomical Twilight 6:01 AM EST 6:51 PM EST
Moon 12:41 PM EST (1/9) 1:43 AM EST (1/9)
Length of Visible Light 10h 40m
Length of Day
9h 42m
Waxing Gibbous, 66% of the Moon is Illuminated
Jan 9
Waxing Gibbous
Jan 15
Full
Jan 24
Last Quarter
Jan 30
New
Feb 6
First Quarter

Hourly Weather History & Observations

Time (EST) Temp. Windchill Dew Point Humidity Pressure Visibility Wind Dir Wind Speed Gust Speed Precip Events Conditions
12:15 AM 26.6 °F 14.7 °F 10.4 °F 51% 30.35 in 10.0 mi West 15.0 mph - N/A   Clear
12:35 AM 26.6 °F 14.7 °F 10.4 °F 51% 30.35 in 10.0 mi West 15.0 mph - N/A   Clear
12:55 AM 26.6 °F 15.2 °F 10.4 °F 51% 30.35 in 10.0 mi West 13.8 mph - N/A   Clear
1:15 AM 26.6 °F 15.2 °F 10.4 °F 51% 30.35 in 10.0 mi West 13.8 mph - N/A   Clear
1:35 AM 26.6 °F 15.7 °F 10.4 °F 51% 30.34 in 10.0 mi West 12.7 mph 19.6 mph N/A   Clear
1:55 AM 26.6 °F 14.7 °F 10.4 °F 51% 30.35 in 10.0 mi West 15.0 mph - N/A   Clear
2:15 AM 26.6 °F 14.7 °F 10.4 °F 51% 30.36 in 10.0 mi West 15.0 mph - N/A   Clear
2:35 AM 26.6 °F 14.7 °F 10.4 °F 51% 30.36 in 10.0 mi West 15.0 mph - N/A   Clear
2:55 AM 26.6 °F 15.2 °F 10.4 °F 51% 30.36 in 10.0 mi West 13.8 mph - N/A   Unknown
3:15 AM 26.6 °F 15.2 °F 10.4 °F 51% 30.37 in 10.0 mi West 13.8 mph - N/A   Clear
3:55 AM 26.6 °F 15.2 °F 10.4 °F 51% 30.38 in 10.0 mi West 13.8 mph - N/A   Clear
4:15 AM 24.8 °F 12.4 °F 10.4 °F 54% 30.38 in 10.0 mi West 15.0 mph - N/A   Clear
4:35 AM 24.8 °F 14.0 °F 10.4 °F 54% 30.38 in 10.0 mi West 11.5 mph - N/A   Clear
4:55 AM 24.8 °F 14.6 °F 10.4 °F 54% 30.38 in 10.0 mi West 10.4 mph - N/A   Scattered Clouds
5:15 AM 24.8 °F 15.3 °F 10.4 °F 54% 30.38 in 10.0 mi West 9.2 mph - N/A   Scattered Clouds
5:35 AM 24.8 °F 15.3 °F 10.4 °F 54% 30.39 in 10.0 mi West 9.2 mph - N/A   Clear
5:55 AM 24.8 °F 16.1 °F 10.4 °F 54% 30.39 in 10.0 mi West 8.1 mph - N/A   Clear
6:15 AM 24.8 °F 16.1 °F 10.4 °F 54% 30.39 in 10.0 mi West 8.1 mph - N/A   Clear
6:35 AM 24.8 °F 16.1 °F 10.4 °F 54% 30.40 in 10.0 mi West 8.1 mph - N/A   Scattered Clouds
6:55 AM 24.8 °F 16.9 °F 10.4 °F 54% 30.41 in 10.0 mi WSW 6.9 mph - N/A   Mostly Cloudy
7:15 AM 26.6 °F 19.1 °F 10.4 °F 51% 30.42 in 10.0 mi SW 6.9 mph - N/A   Overcast
7:35 AM 24.8 °F 16.9 °F 10.4 °F 54% 30.43 in 10.0 mi SW 6.9 mph - N/A   Scattered Clouds
7:55 AM 24.8 °F 16.9 °F 10.4 °F 54% 30.44 in 10.0 mi WSW 6.9 mph - N/A   Clear
8:15 AM 26.6 °F 18.2 °F 10.4 °F 51% 30.44 in 10.0 mi WSW 8.1 mph - N/A   Clear
8:55 AM 32.0 °F 26.4 °F 10.4 °F 41% 30.46 in 10.0 mi SW 5.8 mph - N/A   Clear
9:15 AM 33.8 °F 29.6 °F 10.4 °F 38% 30.47 in 10.0 mi WSW 4.6 mph - N/A   Clear
9:35 AM 35.6 °F 29.2 °F 10.4 °F 35% 30.47 in 10.0 mi WSW 8.1 mph - N/A   Clear
9:55 AM 37.4 °F 30.8 °F 10.4 °F 33% 30.48 in 10.0 mi WSW 9.2 mph - N/A   Clear
10:15 AM 37.4 °F 30.8 °F 10.4 °F 33% 30.48 in 10.0 mi WSW 9.2 mph - N/A   Clear
10:35 AM 37.4 °F 32.1 °F 10.4 °F 33% 30.48 in 10.0 mi SW 6.9 mph - N/A   Clear
10:55 AM 37.4 °F 32.8 °F 12.2 °F 36% 30.47 in 10.0 mi West 5.8 mph - N/A   Scattered Clouds
11:15 AM 39.2 °F 35.9 °F 12.2 °F 33% 30.47 in 10.0 mi WSW 4.6 mph - N/A   Scattered Clouds
11:35 AM 35.6 °F - 14.0 °F 41% 30.46 in 10.0 mi Calm Calm - N/A   Scattered Clouds
11:55 AM 35.6 °F 32.8 °F 15.8 °F 44% 30.45 in 10.0 mi SSE 3.5 mph - N/A   Scattered Clouds
12:15 PM 35.6 °F 31.7 °F 15.8 °F 44% 30.44 in 10.0 mi SE 4.6 mph - N/A   Mostly Cloudy
12:35 PM 35.6 °F 31.7 °F 12.2 °F 38% 30.43 in 10.0 mi SSE 4.6 mph - N/A   Scattered Clouds
12:55 PM 37.4 °F 33.8 °F 12.2 °F 36% 30.42 in 10.0 mi ESE 4.6 mph - N/A   Clear
1:15 PM 37.4 °F 34.9 °F 12.2 °F 36% 30.42 in 10.0 mi SE 3.5 mph - N/A   Clear
1:35 PM 35.6 °F 32.8 °F 12.2 °F 38% 30.42 in 10.0 mi SE 3.5 mph - N/A   Clear
1:55 PM 37.4 °F 34.9 °F 12.2 °F 36% 30.42 in 10.0 mi South 3.5 mph - N/A   Clear
2:15 PM 37.4 °F 33.8 °F 12.2 °F 36% 30.42 in 10.0 mi SSE 4.6 mph - N/A   Clear
2:35 PM 37.4 °F 31.4 °F 12.2 °F 36% 30.41 in 10.0 mi SE 8.1 mph - N/A   Clear
2:55 PM 37.4 °F 32.1 °F 12.2 °F 36% 30.41 in 10.0 mi SSE 6.9 mph - N/A   Clear
3:35 PM 35.6 °F 28.6 °F 14.0 °F 41% 30.41 in 10.0 mi SSE 9.2 mph 16.1 mph N/A   Clear
3:55 PM 35.6 °F 29.9 °F 14.0 °F 41% 30.41 in 10.0 mi SE 6.9 mph - N/A   Clear
4:15 PM 35.6 °F 29.2 °F 14.0 °F 41% 30.41 in 10.0 mi SE 8.1 mph - N/A   Clear
4:35 PM 35.6 °F 28.0 °F 15.8 °F 44% 30.41 in 10.0 mi SE 10.4 mph - N/A   Clear
4:55 PM 35.6 °F 27.1 °F 15.8 °F 44% 30.40 in 10.0 mi SE 12.7 mph - N/A   Scattered Clouds
5:15 PM 33.8 °F 25.3 °F 15.8 °F 48% 30.40 in 10.0 mi SE 11.5 mph 18.4 mph N/A   Scattered Clouds
6:15 PM 32.0 °F 23.6 °F 15.8 °F 51% 30.41 in 10.0 mi SE 10.4 mph - N/A   Mostly Cloudy
6:35 PM 32.0 °F 24.2 °F 15.8 °F 51% 30.42 in 10.0 mi SSE 9.2 mph - N/A   Overcast
6:55 PM 30.2 °F 21.9 °F 15.8 °F 55% 30.43 in 10.0 mi SSE 9.2 mph - N/A   Overcast
7:15 PM 30.2 °F 21.9 °F 14.0 °F 51% 30.43 in 10.0 mi SSE 9.2 mph 16.1 mph N/A   Overcast
7:35 PM 30.2 °F 20.8 °F 15.8 °F 55% 30.44 in 10.0 mi SSE 11.5 mph - N/A   Overcast
7:55 PM 30.2 °F 21.9 °F 14.0 °F 51% 30.44 in 10.0 mi SSE 9.2 mph - N/A   Overcast
8:15 PM 30.2 °F 21.9 °F 15.8 °F 55% 30.43 in 10.0 mi SSE 9.2 mph - N/A   Overcast
8:35 PM 30.2 °F 20.8 °F 14.0 °F 51% 30.43 in 10.0 mi South 11.5 mph - N/A   Overcast
8:56 PM 30.2 °F 20.8 °F 14.0 °F 51% 30.43 in 10.0 mi SSE 11.5 mph - N/A   Mostly Cloudy
9:15 PM 30.2 °F 21.3 °F 15.8 °F 55% 30.43 in 10.0 mi SSE 10.4 mph - N/A   Scattered Clouds
9:35 PM 30.2 °F 21.3 °F 15.8 °F 55% 30.43 in 10.0 mi South 10.4 mph - N/A   Mostly Cloudy
9:55 PM 30.2 °F 20.8 °F 14.0 °F 51% 30.42 in 10.0 mi SSE 11.5 mph - N/A   Mostly Cloudy
10:15 PM 30.2 °F 21.3 °F 14.0 °F 51% 30.42 in 10.0 mi South 10.4 mph 16.1 mph N/A   Scattered Clouds
10:35 PM 30.2 °F 20.8 °F 14.0 °F 51% 30.42 in 10.0 mi South 11.5 mph 17.3 mph N/A   Overcast
10:55 PM 30.2 °F 19.3 °F 14.0 °F 51% 30.41 in 10.0 mi South 15.0 mph - N/A   Overcast
11:15 PM 30.2 °F 21.9 °F 14.0 °F 51% 30.40 in 10.0 mi South 9.2 mph - N/A   Overcast
11:35 PM 30.2 °F 20.2 °F 14.0 °F 51% 30.39 in 10.0 mi South 12.7 mph 16.1 mph N/A   Mostly Cloudy